RH
85 78 84 97 99 98 99 99 98 98 98 98 96 86 68 46 24 17 18 19 17 16 21 24 26 26 28 26 30 28 30 35 37 57 55 39 53 42 25 34 25 30 32 53 44 50 49 34 32 38 41 40 43 45
79 90 98 98 98 99 99 98 98 98 98 96 75 50 24 17 17 16 13 15 19 19 28 30 32 31 33 33 32 26 38 29 36 43 40 38 31 39 32 43 47 47 52 41 40 50 35 41 43 40 49 46 49 50
98 97 98 98 98 98 98 98 98 97 79 57 44 23 18 15 17 14 14 16 18 23 30 28 29 29 32 34 30 30 28 27 26 28 33 40 39 39 47 54 52 45 46 49 47 50 52 53 54 55 55 42 49 46
98 96 93 88 85 82 79 76 72 64 56 42 27 20 16 14 17 12 12 15 13 21 28 33 25 26 23 26 25 29 28 23 24 25 28 31 35 36 37 41 42 40 49 55 53 50 58 58 61 60 49 38 51 52
76 73 68 62 60 56 53 51 49 46 35 24 18 16 14 14 14 18 19 18 20 21 32 28 25 20 21 25 22 20 21 22 27 32 32 34 44 41 37 37 39 47 48 52 55 55 60 58 55 48 44 47 54 52
63 59 52 47 44 42 39 35 30 23 17 15 16 15 14 13 11 11 13 15 21 22 23 26 29 24 25 26 27 27 27 33 36 39 40 39 41 39 35 38 40 41 41 42 43 44 47 47 44 57 53 46 53 56
55 52 48 41 36 32 28 24 18 15 14 14 13 12 12 12 14 15 12 18 20 23 25 29 30 27 25 26 30 32 36 37 37 45 44 43 45 50 48 46 42 39 38 41 45 47 49 50 62 58 53 48 55 62
46 38 30 27 27 26 22 16 14 13 13 12 12 12 13 14 16 18 15 15 14 21 23 27 37 33 29 31 35 36 40 38 42 41 42 46 48 51 50 42 38 37 36 37 43 48 48 52 55 50 54 56 61 62
46 44 39 35 28 22 16 14 13 12 12 12 11 12 16 24 22 19 17 15 18 21 22 29 36 37 31 34 42 45 47 51 46 50 50 49 51 51 45 44 43 41 40 40 41 47 52 55 56 54 58 58 58 63
35 30 24 23 18 13 12 11 11 12 12 15 18 23 30 30 18 17 20 20 23 20 20 29 33 42 32 41 49 47 48 49 55 52 50 51 47 44 46 45 43 43 43 43 44 47 55 61 63 59 57 58 58 53
30 28 26 18 14 14 13 12 13 15 19 28 32 31 28 25 28 30 26 21 22 23 20 28 39 41 40 47 48 49 49 49 50 51 53 49 46 42 41 38 35 34 39 47 46 49 54 52 50 51 53 52 51 53
23 22 21 19 16 14 14 14 17 23 32 33 26 28 29 33 32 34 30 32 28 27 29 28 36 36 45 50 51 49 48 45 50 54 50 51 44 42 40 37 37 38 43 44 48 50 51 51 50 49 50 50 53 53
28 29 24 20 17 16 17 21 24 27 29 32 34 34 35 38 44 41 42 36 37 37 37 42 46 48 52 50 50 44 50 50 46 53 52 43 45 38 40 42 45 44 43 46 49 48 48 49 48 48 50 50 53 55
28 28 26 24 21 19 20 24 28 33 38 36 34 38 42 42 40 36 37 38 41 42 40 46 50 47 50 48 42 48 46 48 52 50 48 44 44 41 43 44 45 46 46 46 49 50 50 49 48 48 50 51 54 58
33 32 32 32 30 26 24 26 31 35 37 35 34 39 37 40 41 43 49 48 45 44 43 49 51 51 49 44 41 46 51 51 46 44 48 44 43 41 45 48 50 51 49 47 45 47 47 47 48 49 51 52 54 59
38 40 42 37 36 34 32 30 34 40 35 34 35 37 40 42 46 45 47 47 48 45 46 51 53 54 49 44 47 51 48 46 45 44 48 42 42 45 49 51 51 49 49 52 52 52 52 51 52 51 50 50 54 59
39 43 41 43 41 39 39 44 44 40 37 35 38 40 45 47 46 43 50 48 53 53 56 54 56 49 48 50 51 49 47 48 48 46 44 44 45 48 52 52 51 49 47 49 50 49 50 52 54 53 52 52 54 58
46 43 42 43 43 45 46 48 45 41 41 39 41 42 45 51 52 46 50 50 50 56 58 58 55 54 59 56 55 52 49 50 49 46 44 47 50 54 55 56 57 58 59 58 56 54 53 53 52 52 52 54 55 59
46 45 44 44 47 51 50 47 47 45 43 42 42 42 42 47 49 52 46 51 52 58 60 61 60 57 58 58 60 61 56 53 51 50 51 56 58 58 58 58 58 58 57 56 55 56 53 49 49 50 50 52 54 59
56 53 51 53 56 58 54 52 43 43 44 46 44 43 42 40 41 43 47 51 56 60 63 62 58 56 64 68 65 63 62 62 59 57 59 64 65 66 65 63 63 63 61 57 53 49 48 47 46 50 48 50 51 59
68 62 65 66 60 56 59 51 44 43 45 51 52 51 56 48 46 46 47 48 51 53 53 55 58 58 63 69 70 67 65 68 65 62 66 69 69 68 64 60 59 59 57 54 51 48 45 44 46 47 44 48 54 60
76 70 68 65 64 62 58 51 48 44 48 59 60 61 62 64 59 55 55 54 52 52 54 54 54 58 62 63 60 62 66 69 67 68 69 68 66 62 60 59 59 58 54 48 45 43 46 45 47 47 45 47 52 58
78 77 76 74 70 66 65 58 56 53 53 64 70 70 69 70 68 66 67 60 57 56 55 56 56 57 59 61 64 67 72 73 72 72 71 68 65 63 60 57 51 49 48 46 46 43 41 41 41 42 44 49 54 57
76 76 76 77 76 76 70 65 61 59 65 72 75 73 72 76 76 75 72 63 60 60 61 62 63 64 64 66 67 68 69 69 71 70 68 66 63 60 55 52 51 48 46 45 46 40 38 41 40 40 45 49 53 56
79 81 80 78 78 76 72 67 61 60 67 82 85 86 82 79 81 80 73 64 63 61 61 65 68 70 70 70 71 71 71 72 70 66 64 62 58 55 53 50 50 50 47 45 42 40 37 36 41 42 45 49 52 55
78 79 75 75 76 72 67 65 65 63 64 81 88 85 79 79 83 80 68 64 62 62 63 64 66 70 71 69 70 71 69 65 62 64 63 58 54 51 50 50 50 48 48 47 45 43 40 39 41 43 46 49 50 51
79 78 77 73 72 64 67 65 63 63 64 71 80 85 85 84 77 69 61 64 64 65 66 64 61 62 64 65 65 68 66 61 60 60 59 55 51 49 49 48 47 46 46 45 43 42 41 41 41 44 46 48 48 52
63 72 70 68 70 65 67 64 62 63 63 71 79 85 82 76 72 68 69 67 65 63 65 63 59 60 62 65 63 63 62 59 58 56 54 51 49 49 49 47 46 46 45 44 43 42 41 42 43 44 45 47 51 59
78 71 74 78 72 70 66 63 63 62 65 69 73 75 72 69 70 70 68 64 65 64 63 62 62 64 66 65 61 59 57 56 54 52 52 51 51 51 50 48 46 45 44 42 41 41 41 42 43 45 48 52 58 67
79 81 84 85 82 80 77 71 69 68 72 71 71 73 72 70 68 67 68 67 69 69 68 67 66 65 64 62 60 59 58 56 54 52 52 52 53 53 51 49 48 46 42 40 38 37 38 39 43 48 53 58 66 75
80 84 88 86 82 77 76 72 71 73 75 74 73 73 71 70 70 69 71 73 74 73 70 69 68 67 66 65 63 60 57 56 55 54 53 53 56 56 54 52 49 44 40 38 36 36 37 40 44 49 56 65 73 79
86 86 86 91 87 81 81 77 77 78 78 76 74 72 72 70 68 65 70 77 75 72 71 72 71 68 66 65 64 62 60 59 58 57 57 58 61 60 57 53 49 44 40 39 38 38 43 44 49 56 65 73 80 85
87 86 86 88 94 91 84 85 85 81 80 79 77 75 71 68 66 65 75 78 78 75 74 72 70 69 69 68 65 62 61 60 60 60 61 63 64 62 59 54 48 43 42 40 41 44 47 51 59 67 74 81 86 89